User: anonymous   Login
Location: Unspecified
(0.0000°N, 0.0000°E)
Time: 23:54:28
(UTC+01:00)
Language:

Cosmos 1295 Rocket - Orbit

View from above orbital plane
View from above orbital plane
View from above satellite
View from above satellite

Ground track
Ground track

The orbit data is extracted from the following two-line orbital elements,

1 12682U 81077B   17023.41937071  .00000028  00000-0  12699-4 0  9998
2 12682  82.9187 124.4227 0034536  32.2998 328.0265 13.78535242782926
Epoch (UTC): 23 January 2017 10:03:53
Eccentricity: 0.0034536
inclination: 82.9187°
perigee height: 944 km
apogee height: 994 km
right ascension of ascending node: 124.4227°
argument of perigee: 32.2998°
revolutions per day: 13.78535242
mean anomaly at epoch: 328.0265°
orbit number at epoch: 78292

The dashed part of the orbit path shows where the satellite is in the earth's shadow,  

DLR